SCP
-0 -0 0 -0 -0 0 -0 -0 -0 -0 0 0 0 0 0 0 0 0 0 -0 -0 -0 -0 0 -0 -0 -0 -0 -0 -0 -0 -0 -0 -0 -0 -0 -0 -0 -0 -0 -0 -0 -0 -0 -0 -0 -0 -0 -0
0 -0 0 0 0 0 -0 -0 -0 -0 0 0 0 0 0 0 -0 -0 0 -0 -0 -0 -0 0 -0 -0 -0 -0 -0 -0 -0 -0 -0 -0 -0 -0 -0 -0 -0 -0 -0 0 0 -0 -0 -0 -0 -0 -0
0 -0 0 0 0 0 -0 -0 -0 -0 -0 0 0 0 0 0 0 -0 0 -0 -0 -0 -0 -0 -0 -0 -0 -0 0 -0 -0 -0 -0 -0 -0 -0 -0 -0 -0 -0 -0 0 0 -0 -0 -0 -0 -0 -0
0 0 0 0 0 0 0 0 -0 -0 -0 -0 0 0 0 0 0 0 -0 -0 -0 -0 -0 -0 -0 -0 -0 -0 -0 -0 -0 -0 -0 -0 -0 -0 -0 -0 -0 -0 0 0 0 -0 -0 -0 -0 -0 -0
0 0 0 0 0 0 0 0 0 -0 -0 -0 0 -0 0 0 0 0 -0 -0 -0 -0 -0 -0 -0 -0 -0 -0 -0 -0 -0 -0 -0 -0 -0 -0 -0 -0 -0 -0 0 -0 0 -0 -0 -0 -0 -0 -0
0 0 0 0 0 0 0 0 -0 0 -0 0 0 0 -0 0 0 0 0 0 -0 -0 -0 -0 -0 -0 -0 -0 -0 -0 -0 -0 -0 -0 -0 -0 -0 -0 0 0 0 0 0 -0 -0 -0 -0 -0 -0
0 0 0 0 0 0 0 0 0 0 0 -0 0 0 -0 0 0 0 0 0 0 -0 -0 -0 -0 -0 -0 -0 -0 -0 -0 0 -0 -0 -0 -0 -0 -0 0 -0 0 -0 -0 -0 -0 0 0 0 0
0 0 0 0 0 0 0 0 0 0 0 0 0 0 -0 0 0 0 0 0 0 0 -0 -0 0 0 0 0 -0 -0 -0 0 -0 -0 0 0 0 -0 -0 -0 -0 -0 -0 -0 0 0 0 0 0
0 0 0 0 0 0 0 0 0 0 0 0 0 0 0 0 0 0 0 0 0 0 0 0 0 0 0 0 0 0 0 0 0 -0 -0 0 0 0 0 0 -0 -0 0 0 0 0 0 0 0
0 0 0 0 0 0 0 0 0 0 0 0 0 0 0 0 0 0 0 0 0 0 0 0 -0 0 0 0 0 0 0 0 0 0 0 0 0 0 0 0 0 0 0 0 0 0 0 0 0
0 0 0 0 0 0 0 0 0 0 0 0 0 0 0 0 0 0 0 0 0 0 0 0 -0 -0 -0 0 0 0 0 0 0 0 0 0 0 0 0 0 0 0 0 0 0 0 0 0 0
0 0 0 0 0 0 0 0 0 0 0 0 0 0 0 0 0 0 0 0 0 0 0 0 0 0 -0 0 0 0 0 0 0 0 0 0 0 0 0 0 0 0 0 0 0 0 0 0 0
0 0 0 0 0 0 0 0 0 0 0 0 0 0 0 0 0 0 0 0 0 0 0 0 0 0 0 0 0 0 0 0 0 0 0 0 0 0 0 0 0 0 0 0 0 0 0 0 0
0 0 0 0 0 0 0 0 0 0 0 0 0 0 0 0 0 0 0 0 0 0 0 0 0 0 0 0 0 0 0 0 0 0 0 0 0 0 0 0 0 0 0 0 0 0 0 0 0
0 0 0 0 0 0 0 0 0 0 0 0 0 0 0 0 0 0 0 0 0 0 0 0 0 0 0 0 0 0 0 0 0 0 0 0 0 0 0 0 0 0 0 0 0 0 0 0 0
0 0 0 0 0 0 0 0 0 0 0 0 0 0 0 0 0 0 0 0 0 0 0 0 0 0 0 0 0 0 0 0 0 0 0 0 0 0 0 0 0 0 0 0 0 0 0 0 0
0 0 0 0 0 0 0 0 0 0 0 0 0 0 0 0 0 0 0 0 0 0 0 0 0 0 0 0 0 0 0 0 0 0 0 0 0 0 0 0 0 0 0 0 0 0 0 0 0
0 0 0 0 0 0 0 0 0 0 0 0 0 0 0 0 0 0 0 0 0 0 0 0 0 0 0 0 0 0 0 0 0 0 0 0 0 0 0 0 0 0 0 0 0 0 0 0 0
0 0 0 0 0 0 0 0 0 0 0 0 0 0 0 0 0 0 0 0 0 0 0 0 0 0 0 0 0 0 0 0 0 0 0 0 0 0 0 0 0 0 0 0 0 0 0 0 0
0 0 0 0 0 0 0 0 0 0 0 0 0 0 0 0 0 0 0 0 0 0 0 0 0 0 0 0 0 0 0 0 0 0 0 0 0 0 0 0 0 0 0 0 0 0 0 0 0
0 0 0 0 0 0 0 0 0 0 0 0 0 0 0 0 0 0 0 0 0 0 0 0 0 0 0 0 0 0 0 0 0 0 0 0 0 0 0 0 0 0 0 0 0 0 0 0 0
0 0 0 0 0 0 0 0 0 0 0 0 0 0 0 0 0 0 0 0 0 0 0 0 0 0 0 0 0 0 0 0 0 0 0 0 0 0 0 0 0 0 0 0 0 0 0 0 0
0 0 0 0 0 0 0 0 0 0 0 0 0 0 0 0 0 0 0 0 0 0 0 0 0 0 0 0 0 0 0 0 0 0 0 0 0 0 0 0 0 0 0 0 0 0 0 0 0
0 0 0 0 0 0 0 0 0 0 0 0 0 0 0 0 0 0 0 0 0 0 0 0 0 0 0 0 0 0 0 0 0 0 0 0 0 0 0 0 0 0 0 0 0 0 0 0 0
0 0 0 0 0 0 0 0 0 0 0 0 0 0 0 0 0 0 0 0 0 0 0 0 0 0 0 0 0 0 0 0 0 0 0 0 0 0 0 0 0 0 0 0 0 0 0 0 0
0 0 0 0 0 0 0 0 0 0 0 0 0 0 0 0 0 0 0 0 0 0 0 0 0 0 0 0 0 0 0 0 0 0 0 0 0 0 0 0 0 0 0 0 0 0 0 0 0
0 0 0 0 0 0 0 0 0 0 0 0 0 0 0 0 0 0 0 0 0 0 0 0 0 0 0 0 0 0 0 0 0 0 0 0 0 0 0 0 0 0 0 0 0 0 0 0 0
0 0 0 0 0 0 0 0 0 0 0 0 0 0 0 0 0 0 0 0 0 0 0 0 0 0 0 0 0 0 0 0 0 0 0 0 0 0 0 0 0 0 0 0 0 0 0 0 0
0 0 0 0 0 0 0 0 0 0 0 0 0 0 0 0 0 0 0 0 0 0 0 0 0 0 0 0 0 0 0 0 0 0 0 0 0 0 0 0 0 0 0 0 0 0 0 0 0
0 0 0 0 0 0 0 0 0 0 0 0 0 0 0 0 0 0 0 0 0 0 0 0 0 0 0 0 0 0 0 0 0 0 0 0 0 0 0 0 0 0 0 0 0 0 0 0 0
Wind_Speed_500mb
35 36 26 3 8 10 1 3 3 3 3 5 5 12 12 6 4 5 23 27 30 31 30 29 26 20 18 12 10 10 10 8 8 16 18 14 18 19 19 22 18 22 22 24 22 25 24 24 26
35 34 14 5 9 6 6 4 5 3 6 21 18 10 8 2 4 8 35 29 25 29 28 29 28 21 12 6 7 8 9 7 9 12 18 17 15 15 16 18 18 22 22 20 22 24 21 21 26
27 25 9 7 7 7 9 8 11 5 5 5 7 9 2 1 6 16 21 30 29 30 26 26 25 20 13 6 5 6 8 6 7 17 15 10 12 11 11 13 16 18 20 19 22 21 18 18 20
23 9 9 8 4 4 6 9 10 11 5 3 13 10 4 4 3 21 27 29 27 30 28 26 24 22 15 8 5 3 5 4 5 15 15 13 10 9 11 11 14 16 18 21 21 18 17 16 14
10 7 8 6 7 6 2 17 25 9 8 10 10 6 5 11 10 15 28 29 29 32 30 28 25 22 17 12 10 5 2 3 6 13 16 23 15 10 14 15 14 13 16 19 19 17 15 14 11
5 6 8 2 6 6 2 17 14 9 11 14 8 13 8 19 13 15 19 26 26 30 32 29 26 23 20 18 16 10 5 4 11 15 16 18 20 11 12 14 12 13 14 16 16 14 12 11 9
5 7 9 5 3 3 6 18 9 13 10 7 14 8 6 22 19 17 20 26 27 30 31 30 27 25 23 22 20 15 10 8 14 18 15 12 14 13 9 14 15 12 11 13 14 13 11 10 8
3 7 9 5 5 6 4 7 4 13 9 10 13 5 7 21 24 25 28 29 31 33 31 29 29 28 27 26 25 21 17 13 12 19 17 15 12 12 10 9 13 13 15 15 15 14 12 10 9
1 8 4 9 12 6 2 4 4 5 8 11 10 7 9 17 26 33 38 39 39 39 36 32 31 31 29 30 30 27 23 20 17 20 23 22 20 16 13 13 12 16 18 17 17 16 15 13 12
2 7 16 8 7 6 0 4 8 6 6 8 6 7 9 19 32 39 45 47 48 46 43 40 34 34 34 34 33 32 29 27 23 21 26 26 24 22 19 17 15 15 19 21 19 19 19 17 16
5 8 7 4 7 4 4 5 8 15 7 14 16 2 6 22 34 40 46 47 43 42 44 44 40 36 38 38 37 35 34 33 30 26 28 30 30 28 25 21 19 18 20 21 22 23 21 20 19
4 13 8 3 6 3 4 5 6 17 11 18 11 12 15 20 33 38 45 51 49 48 46 44 45 42 41 39 40 37 38 37 36 31 29 33 34 31 28 25 22 22 22 24 26 26 25 24 22
8 9 14 19 11 10 12 12 14 25 25 15 19 15 20 26 27 30 40 44 51 53 51 49 47 49 47 45 42 41 40 41 39 36 36 34 34 32 32 29 28 26 27 27 29 30 29 28 27
5 21 25 13 16 13 10 14 15 18 31 37 29 27 25 31 33 35 40 46 52 55 56 54 55 52 52 51 49 46 42 39 40 43 41 41 40 36 36 34 33 33 31 29 32 33 33 33 34
20 9 13 6 11 15 10 15 23 44 30 37 39 41 39 38 39 47 46 50 50 59 60 60 60 58 57 56 54 52 50 46 45 45 46 47 47 43 40 40 39 34 35 33 36 38 39 40 39
9 6 5 6 21 11 21 38 17 37 43 46 49 41 35 37 46 46 51 56 51 54 66 65 64 65 63 60 57 57 56 55 53 50 50 50 50 48 46 45 44 38 40 41 41 40 43 43 42
8 7 19 13 24 10 16 16 7 24 37 42 45 55 56 49 31 28 36 48 53 54 58 64 67 70 67 65 62 60 60 60 59 59 56 55 53 52 51 49 45 43 47 48 46 45 47 46 45
13 10 11 14 6 14 13 25 18 37 33 45 48 49 54 52 52 46 42 41 41 55 65 65 64 68 70 68 68 67 66 64 66 67 65 62 60 57 55 54 51 49 53 55 53 51 49 49 47
13 10 18 5 7 2 14 28 31 44 43 51 66 62 62 68 66 56 48 42 50 48 58 72 67 63 71 76 76 77 78 72 73 74 71 69 67 64 63 60 55 56 60 58 57 56 54 54 50
11 12 16 6 8 6 15 34 34 37 40 55 58 66 63 61 52 55 56 64 63 57 50 59 74 71 63 73 78 77 75 77 76 76 78 76 74 72 71 67 64 63 64 63 64 64 64 61 55
29 38 8 7 2 6 9 30 28 20 39 50 50 50 49 50 52 58 65 58 55 64 60 52 60 76 69 64 73 79 81 80 81 85 83 82 80 79 77 76 74 73 70 71 69 69 70 70 64
38 16 13 12 8 12 7 18 10 7 14 14 33 39 40 55 57 57 58 56 58 60 65 57 50 63 76 71 69 76 79 83 81 80 81 81 81 83 83 83 83 82 80 79 78 73 73 74 79
22 19 25 11 10 6 20 8 10 2 12 14 20 32 41 50 49 44 36 40 39 45 52 63 53 53 68 79 72 68 76 77 79 81 78 76 76 77 77 82 87 88 89 87 87 85 81 81 82
14 11 8 9 11 27 54 18 27 20 11 12 26 42 41 29 12 26 15 23 18 21 29 34 48 51 52 72 77 77 69 67 77 78 80 82 82 82 82 81 82 85 89 93 93 91 90 89 89
19 21 11 17 20 34 15 18 42 14 14 14 21 38 18 10 14 23 27 31 30 19 8 19 30 43 53 62 73 77 79 76 76 74 78 82 86 89 87 87 85 83 85 88 90 94 94 95 97
43 36 12 13 10 15 10 20 22 18 36 47 53 38 26 8 26 30 32 33 31 33 30 22 5 20 34 44 52 60 66 74 78 77 73 78 86 89 91 92 90 84 79 81 85 91 94 95 99
24 32 20 7 2 5 9 11 18 17 18 11 10 19 26 34 30 29 36 36 34 33 33 29 29 28 15 9 25 36 45 52 60 66 72 74 67 70 75 89 91 86 83 79 80 86 88 91 97
21 13 25 14 12 11 7 6 13 7 7 13 16 33 32 27 28 32 35 34 34 31 26 24 23 23 22 19 17 13 10 20 32 41 55 68 71 69 74 79 86 89 88 86 83 84 85 91 93
18 17 9 5 10 9 4 11 14 17 15 21 24 35 29 26 26 30 30 30 29 25 24 20 19 19 19 21 22 19 19 20 23 30 37 43 54 62 68 71 79 85 90 90 93 90 86 90 91
33 37 37 14 17 9 3 10 4 9 15 31 34 27 22 21 24 25 28 28 24 22 21 22 19 18 29 33 36 39 37 36 33 34 34 34 40 45 51 57 70 76 86 94 91 94 95 94 94
Wind_Direction_500mb
339 337 343 37 53 66 72 198 297 163 31 43 59 112 126 91 152 208 153 153 154 164 161 161 161 170 162 139 82 69 65 52 80 136 118 104 101 97 108 128 124 115 113 109 109 100 98 88 80
345 333 342 78 86 73 276 261 150 205 145 108 103 65 52 105 160 158 156 163 168 175 171 170 173 178 176 122 95 73 56 55 91 117 115 121 108 97 102 117 123 119 115 114 107 104 101 98 87
350 341 5 76 107 157 177 195 180 148 122 180 104 88 84 157 210 174 170 165 175 185 182 180 182 183 183 161 124 80 52 41 125 138 139 124 129 109 109 124 131 125 124 115 116 118 112 103 92
346 348 42 73 116 232 197 170 171 144 122 111 130 86 129 216 180 169 171 168 180 189 187 189 192 194 195 186 167 101 55 50 150 158 147 140 142 149 149 141 138 143 133 124 131 126 118 120 102
335 41 48 69 330 333 23 163 167 167 163 147 173 195 162 164 166 177 179 181 185 189 192 197 203 205 207 206 203 194 205 143 169 184 170 160 145 152 170 161 157 148 137 135 140 136 131 119 115
19 63 53 83 322 325 344 172 177 157 160 157 144 154 171 184 196 188 197 192 190 203 199 203 208 213 216 215 207 211 230 233 197 195 197 176 188 174 180 170 167 171 150 149 147 146 141 140 139
109 88 177 175 275 251 195 191 193 171 178 215 158 138 233 200 206 215 198 194 202 205 210 210 215 218 223 221 212 216 231 232 220 204 202 196 195 207 193 168 178 176 161 162 162 165 164 168 168
21 82 136 206 176 241 99 186 241 178 201 146 182 221 258 196 197 204 199 200 207 207 210 219 223 222 224 224 223 222 227 237 223 213 209 217 215 211 211 205 197 187 178 178 182 185 188 193 205
339 73 198 217 164 213 344 102 144 189 171 171 198 275 288 195 192 197 203 208 213 216 220 223 228 227 229 226 226 233 233 234 234 219 214 215 216 215 212 215 218 201 195 193 198 199 206 213 223
124 138 208 228 193 187 302 201 174 154 161 215 210 269 280 198 202 205 210 216 219 221 223 226 231 231 231 232 232 230 235 245 239 230 218 222 219 220 220 220 227 219 203 203 207 215 220 226 234
176 205 215 233 196 180 227 214 211 175 210 203 171 209 234 206 211 218 224 230 237 235 231 232 232 233 235 235 235 237 238 236 241 235 225 224 226 224 224 223 228 226 218 218 221 225 229 234 241
203 236 210 238 196 249 213 234 215 215 223 200 226 242 218 217 223 236 238 236 237 239 241 239 238 238 238 236 239 242 242 242 238 236 234 227 232 232 230 231 232 235 231 230 231 234 236 241 246
218 224 228 224 248 274 271 244 259 251 232 227 266 259 237 231 235 250 252 250 246 244 245 244 242 243 242 242 242 240 242 243 241 242 235 235 230 237 240 238 240 243 242 239 240 243 244 248 251
234 235 241 248 239 246 229 259 219 253 246 248 250 255 252 242 248 249 246 250 250 254 251 247 245 247 248 248 248 246 245 245 243 241 242 242 238 243 245 244 245 247 248 246 247 249 251 253 255
253 302 308 218 229 228 238 274 239 248 242 255 257 260 260 256 251 251 253 255 262 261 257 252 250 249 253 254 253 250 251 248 247 248 245 244 247 248 247 247 248 250 252 251 250 249 251 255 259
177 169 240 215 179 224 167 257 260 256 250 253 263 265 258 259 278 261 256 259 262 257 254 255 252 252 252 255 256 255 253 253 252 253 248 249 248 248 248 250 252 253 251 253 252 254 255 257 261
237 187 231 294 208 185 188 267 245 253 248 251 258 272 276 275 270 282 268 267 261 260 256 254 252 251 253 255 255 256 258 256 256 256 252 250 251 250 251 254 255 253 253 253 254 254 257 259 263
204 178 222 210 234 194 234 257 271 268 273 274 273 268 273 276 272 287 280 279 274 261 257 255 254 254 252 254 254 254 256 257 256 256 255 253 252 253 254 254 255 255 253 253 253 255 256 261 263
173 192 211 204 229 265 238 258 264 269 270 268 271 274 271 272 279 281 280 281 278 273 260 252 252 254 249 246 248 249 251 253 254 255 255 254 253 253 255 257 257 255 256 256 257 258 258 259 262
190 211 222 290 241 227 280 268 271 266 259 260 264 272 277 278 278 279 282 286 278 269 268 256 248 248 250 250 252 252 255 257 258 259 259 260 258 257 258 259 260 260 259 259 258 255 256 257 256
221 223 148 187 149 257 342 285 256 252 250 256 259 263 268 270 270 275 285 285 272 259 259 260 256 249 250 250 250 252 252 255 256 256 257 257 258 260 260 262 263 264 263 262 262 260 258 260 259
221 176 162 182 149 242 143 276 241 240 261 240 256 256 256 266 270 279 287 282 275 259 254 257 260 255 250 251 250 253 256 258 264 262 264 263 262 262 264 263 264 264 265 263 264 262 260 258 259
225 167 199 186 218 8 258 257 291 265 267 273 267 266 265 264 280 284 298 303 276 253 254 254 255 261 254 250 252 256 258 266 267 266 267 268 267 266 265 264 265 266 266 267 264 264 262 260 258
134 89 109 145 182 236 240 207 263 235 225 237 239 259 265 290 325 320 332 322 314 260 254 254 252 258 264 255 255 254 260 267 266 270 269 270 271 273 273 272 269 268 267 267 267 266 265 264 263
190 163 195 210 215 234 166 196 247 241 240 218 227 256 270 336 7 90 75 69 59 42 289 252 255 259 262 262 259 260 262 264 266 274 278 280 281 282 284 281 279 277 274 272 271 269 267 265 263
202 205 186 204 208 224 154 208 241 228 248 248 255 258 263 168 123 93 82 70 68 61 57 54 310 270 272 276 277 277 276 273 274 278 282 286 288 292 292 290 288 286 283 279 275 271 270 268 266
194 219 197 125 75 82 199 281 309 246 252 242 239 193 161 124 95 75 76 66 69 61 52 54 59 59 45 311 284 288 293 293 292 292 291 288 289 292 296 293 291 291 289 286 281 276 274 272 270
182 147 210 219 182 209 245 257 228 255 231 130 113 122 119 103 79 72 64 56 53 55 54 48 51 58 58 52 41 18 322 285 286 289 291 293 292 291 291 292 292 292 290 288 284 281 279 274 272
190 212 211 185 156 190 208 251 220 204 173 160 149 132 118 102 73 72 59 44 36 39 44 50 47 36 35 31 20 2 348 333 318 302 297 291 286 287 289 291 293 292 291 289 284 281 279 276 274
209 211 208 209 213 226 137 265 325 215 152 143 145 130 110 88 71 82 50 36 37 42 47 42 37 28 20 9 4 1 353 344 337 331 328 322 307 294 287 286 289 291 290 288 284 284 283 279 274
Wind_Speed_850mb
35 36 26 3 8 10 1 3 3 3 3 5 5 12 12 6 4 5 23 27 30 31 30 29 26 20 18 12 10 10 10 8 8 16 18 14 18 19 19 22 18 22 22 24 22 25 24 24 26
35 34 14 5 9 6 6 4 5 3 6 21 18 10 8 2 4 8 35 29 25 29 28 29 28 21 12 6 7 8 9 7 9 12 18 17 15 15 16 18 18 22 22 20 22 24 21 21 26
27 25 9 7 7 7 9 8 11 5 5 5 7 9 2 1 6 16 21 30 29 30 26 26 25 20 13 6 5 6 8 6 7 17 15 10 12 11 11 13 16 18 20 19 22 21 18 18 20
23 9 9 8 4 4 6 9 10 11 5 3 13 10 4 4 3 21 27 29 27 30 28 26 24 22 15 8 5 3 5 4 5 15 15 13 10 9 11 11 14 16 18 21 21 18 17 16 14
10 7 8 6 7 6 2 17 25 9 8 10 10 6 5 11 10 15 28 29 29 32 30 28 25 22 17 12 10 5 2 3 6 13 16 23 15 10 14 15 14 13 16 19 19 17 15 14 11
5 6 8 2 6 6 2 17 14 9 11 14 8 13 8 19 13 15 19 26 26 30 32 29 26 23 20 18 16 10 5 4 11 15 16 18 20 11 12 14 12 13 14 16 16 14 12 11 9
5 7 9 5 3 3 6 18 9 13 10 7 14 8 6 22 19 17 20 26 27 30 31 30 27 25 23 22 20 15 10 8 14 18 15 12 14 13 9 14 15 12 11 13 14 13 11 10 8
3 7 9 5 5 6 4 7 4 13 9 10 13 5 7 21 24 25 28 29 31 33 31 29 29 28 27 26 25 21 17 13 12 19 17 15 12 12 10 9 13 13 15 15 15 14 12 10 9
1 8 4 9 12 6 2 4 4 5 8 11 10 7 9 17 26 33 38 39 39 39 36 32 31 31 29 30 30 27 23 20 17 20 23 22 20 16 13 13 12 16 18 17 17 16 15 13 12
2 7 16 8 7 6 0 4 8 6 6 8 6 7 9 19 32 39 45 47 48 46 43 40 34 34 34 34 33 32 29 27 23 21 26 26 24 22 19 17 15 15 19 21 19 19 19 17 16
5 8 7 4 7 4 4 5 8 15 7 14 16 2 6 22 34 40 46 47 43 42 44 44 40 36 38 38 37 35 34 33 30 26 28 30 30 28 25 21 19 18 20 21 22 23 21 20 19
4 13 8 3 6 3 4 5 6 17 11 18 11 12 15 20 33 38 45 51 49 48 46 44 45 42 41 39 40 37 38 37 36 31 29 33 34 31 28 25 22 22 22 24 26 26 25 24 22
8 9 14 19 11 10 12 12 14 25 25 15 19 15 20 26 27 30 40 44 51 53 51 49 47 49 47 45 42 41 40 41 39 36 36 34 34 32 32 29 28 26 27 27 29 30 29 28 27
5 21 25 13 16 13 10 14 15 18 31 37 29 27 25 31 33 35 40 46 52 55 56 54 55 52 52 51 49 46 42 39 40 43 41 41 40 36 36 34 33 33 31 29 32 33 33 33 34
20 9 13 6 11 15 10 15 23 44 30 37 39 41 39 38 39 47 46 50 50 59 60 60 60 58 57 56 54 52 50 46 45 45 46 47 47 43 40 40 39 34 35 33 36 38 39 40 39
9 6 5 6 21 11 21 38 17 37 43 46 49 41 35 37 46 46 51 56 51 54 66 65 64 65 63 60 57 57 56 55 53 50 50 50 50 48 46 45 44 38 40 41 41 40 43 43 42
8 7 19 13 24 10 16 16 7 24 37 42 45 55 56 49 31 28 36 48 53 54 58 64 67 70 67 65 62 60 60 60 59 59 56 55 53 52 51 49 45 43 47 48 46 45 47 46 45
13 10 11 14 6 14 13 25 18 37 33 45 48 49 54 52 52 46 42 41 41 55 65 65 64 68 70 68 68 67 66 64 66 67 65 62 60 57 55 54 51 49 53 55 53 51 49 49 47
13 10 18 5 7 2 14 28 31 44 43 51 66 62 62 68 66 56 48 42 50 48 58 72 67 63 71 76 76 77 78 72 73 74 71 69 67 64 63 60 55 56 60 58 57 56 54 54 50
11 12 16 6 8 6 15 34 34 37 40 55 58 66 63 61 52 55 56 64 63 57 50 59 74 71 63 73 78 77 75 77 76 76 78 76 74 72 71 67 64 63 64 63 64 64 64 61 55
29 38 8 7 2 6 9 30 28 20 39 50 50 50 49 50 52 58 65 58 55 64 60 52 60 76 69 64 73 79 81 80 81 85 83 82 80 79 77 76 74 73 70 71 69 69 70 70 64
38 16 13 12 8 12 7 18 10 7 14 14 33 39 40 55 57 57 58 56 58 60 65 57 50 63 76 71 69 76 79 83 81 80 81 81 81 83 83 83 83 82 80 79 78 73 73 74 79
22 19 25 11 10 6 20 8 10 2 12 14 20 32 41 50 49 44 36 40 39 45 52 63 53 53 68 79 72 68 76 77 79 81 78 76 76 77 77 82 87 88 89 87 87 85 81 81 82
14 11 8 9 11 27 54 18 27 20 11 12 26 42 41 29 12 26 15 23 18 21 29 34 48 51 52 72 77 77 69 67 77 78 80 82 82 82 82 81 82 85 89 93 93 91 90 89 89
19 21 11 17 20 34 15 18 42 14 14 14 21 38 18 10 14 23 27 31 30 19 8 19 30 43 53 62 73 77 79 76 76 74 78 82 86 89 87 87 85 83 85 88 90 94 94 95 97
43 36 12 13 10 15 10 20 22 18 36 47 53 38 26 8 26 30 32 33 31 33 30 22 5 20 34 44 52 60 66 74 78 77 73 78 86 89 91 92 90 84 79 81 85 91 94 95 99
24 32 20 7 2 5 9 11 18 17 18 11 10 19 26 34 30 29 36 36 34 33 33 29 29 28 15 9 25 36 45 52 60 66 72 74 67 70 75 89 91 86 83 79 80 86 88 91 97
21 13 25 14 12 11 7 6 13 7 7 13 16 33 32 27 28 32 35 34 34 31 26 24 23 23 22 19 17 13 10 20 32 41 55 68 71 69 74 79 86 89 88 86 83 84 85 91 93
18 17 9 5 10 9 4 11 14 17 15 21 24 35 29 26 26 30 30 30 29 25 24 20 19 19 19 21 22 19 19 20 23 30 37 43 54 62 68 71 79 85 90 90 93 90 86 90 91
33 37 37 14 17 9 3 10 4 9 15 31 34 27 22 21 24 25 28 28 24 22 21 22 19 18 29 33 36 39 37 36 33 34 34 34 40 45 51 57 70 76 86 94 91 94 95 94 94
Wind_Direction_850mb
339 337 343 37 53 66 72 198 297 163 31 43 59 112 126 91 152 208 153 153 154 164 161 161 161 170 162 139 82 69 65 52 80 136 118 104 101 97 108 128 124 115 113 109 109 100 98 88 80
345 333 342 78 86 73 276 261 150 205 145 108 103 65 52 105 160 158 156 163 168 175 171 170 173 178 176 122 95 73 56 55 91 117 115 121 108 97 102 117 123 119 115 114 107 104 101 98 87
350 341 5 76 107 157 177 195 180 148 122 180 104 88 84 157 210 174 170 165 175 185 182 180 182 183 183 161 124 80 52 41 125 138 139 124 129 109 109 124 131 125 124 115 116 118 112 103 92
346 348 42 73 116 232 197 170 171 144 122 111 130 86 129 216 180 169 171 168 180 189 187 189 192 194 195 186 167 101 55 50 150 158 147 140 142 149 149 141 138 143 133 124 131 126 118 120 102
335 41 48 69 330 333 23 163 167 167 163 147 173 195 162 164 166 177 179 181 185 189 192 197 203 205 207 206 203 194 205 143 169 184 170 160 145 152 170 161 157 148 137 135 140 136 131 119 115
19 63 53 83 322 325 344 172 177 157 160 157 144 154 171 184 196 188 197 192 190 203 199 203 208 213 216 215 207 211 230 233 197 195 197 176 188 174 180 170 167 171 150 149 147 146 141 140 139
109 88 177 175 275 251 195 191 193 171 178 215 158 138 233 200 206 215 198 194 202 205 210 210 215 218 223 221 212 216 231 232 220 204 202 196 195 207 193 168 178 176 161 162 162 165 164 168 168
21 82 136 206 176 241 99 186 241 178 201 146 182 221 258 196 197 204 199 200 207 207 210 219 223 222 224 224 223 222 227 237 223 213 209 217 215 211 211 205 197 187 178 178 182 185 188 193 205
339 73 198 217 164 213 344 102 144 189 171 171 198 275 288 195 192 197 203 208 213 216 220 223 228 227 229 226 226 233 233 234 234 219 214 215 216 215 212 215 218 201 195 193 198 199 206 213 223
124 138 208 228 193 187 302 201 174 154 161 215 210 269 280 198 202 205 210 216 219 221 223 226 231 231 231 232 232 230 235 245 239 230 218 222 219 220 220 220 227 219 203 203 207 215 220 226 234
176 205 215 233 196 180 227 214 211 175 210 203 171 209 234 206 211 218 224 230 237 235 231 232 232 233 235 235 235 237 238 236 241 235 225 224 226 224 224 223 228 226 218 218 221 225 229 234 241
203 236 210 238 196 249 213 234 215 215 223 200 226 242 218 217 223 236 238 236 237 239 241 239 238 238 238 236 239 242 242 242 238 236 234 227 232 232 230 231 232 235 231 230 231 234 236 241 246
218 224 228 224 248 274 271 244 259 251 232 227 266 259 237 231 235 250 252 250 246 244 245 244 242 243 242 242 242 240 242 243 241 242 235 235 230 237 240 238 240 243 242 239 240 243 244 248 251
234 235 241 248 239 246 229 259 219 253 246 248 250 255 252 242 248 249 246 250 250 254 251 247 245 247 248 248 248 246 245 245 243 241 242 242 238 243 245 244 245 247 248 246 247 249 251 253 255
253 302 308 218 229 228 238 274 239 248 242 255 257 260 260 256 251 251 253 255 262 261 257 252 250 249 253 254 253 250 251 248 247 248 245 244 247 248 247 247 248 250 252 251 250 249 251 255 259
177 169 240 215 179 224 167 257 260 256 250 253 263 265 258 259 278 261 256 259 262 257 254 255 252 252 252 255 256 255 253 253 252 253 248 249 248 248 248 250 252 253 251 253 252 254 255 257 261
237 187 231 294 208 185 188 267 245 253 248 251 258 272 276 275 270 282 268 267 261 260 256 254 252 251 253 255 255 256 258 256 256 256 252 250 251 250 251 254 255 253 253 253 254 254 257 259 263
204 178 222 210 234 194 234 257 271 268 273 274 273 268 273 276 272 287 280 279 274 261 257 255 254 254 252 254 254 254 256 257 256 256 255 253 252 253 254 254 255 255 253 253 253 255 256 261 263
173 192 211 204 229 265 238 258 264 269 270 268 271 274 271 272 279 281 280 281 278 273 260 252 252 254 249 246 248 249 251 253 254 255 255 254 253 253 255 257 257 255 256 256 257 258 258 259 262
190 211 222 290 241 227 280 268 271 266 259 260 264 272 277 278 278 279 282 286 278 269 268 256 248 248 250 250 252 252 255 257 258 259 259 260 258 257 258 259 260 260 259 259 258 255 256 257 256
221 223 148 187 149 257 342 285 256 252 250 256 259 263 268 270 270 275 285 285 272 259 259 260 256 249 250 250 250 252 252 255 256 256 257 257 258 260 260 262 263 264 263 262 262 260 258 260 259
221 176 162 182 149 242 143 276 241 240 261 240 256 256 256 266 270 279 287 282 275 259 254 257 260 255 250 251 250 253 256 258 264 262 264 263 262 262 264 263 264 264 265 263 264 262 260 258 259
225 167 199 186 218 8 258 257 291 265 267 273 267 266 265 264 280 284 298 303 276 253 254 254 255 261 254 250 252 256 258 266 267 266 267 268 267 266 265 264 265 266 266 267 264 264 262 260 258
134 89 109 145 182 236 240 207 263 235 225 237 239 259 265 290 325 320 332 322 314 260 254 254 252 258 264 255 255 254 260 267 266 270 269 270 271 273 273 272 269 268 267 267 267 266 265 264 263
190 163 195 210 215 234 166 196 247 241 240 218 227 256 270 336 7 90 75 69 59 42 289 252 255 259 262 262 259 260 262 264 266 274 278 280 281 282 284 281 279 277 274 272 271 269 267 265 263
202 205 186 204 208 224 154 208 241 228 248 248 255 258 263 168 123 93 82 70 68 61 57 54 310 270 272 276 277 277 276 273 274 278 282 286 288 292 292 290 288 286 283 279 275 271 270 268 266
194 219 197 125 75 82 199 281 309 246 252 242 239 193 161 124 95 75 76 66 69 61 52 54 59 59 45 311 284 288 293 293 292 292 291 288 289 292 296 293 291 291 289 286 281 276 274 272 270
182 147 210 219 182 209 245 257 228 255 231 130 113 122 119 103 79 72 64 56 53 55 54 48 51 58 58 52 41 18 322 285 286 289 291 293 292 291 291 292 292 292 290 288 284 281 279 274 272
190 212 211 185 156 190 208 251 220 204 173 160 149 132 118 102 73 72 59 44 36 39 44 50 47 36 35 31 20 2 348 333 318 302 297 291 286 287 289 291 293 292 291 289 284 281 279 276 274
209 211 208 209 213 226 137 265 325 215 152 143 145 130 110 88 71 82 50 36 37 42 47 42 37 28 20 9 4 1 353 344 337 331 328 322 307 294 287 286 289 291 290 288 284 284 283 279 274